Погода в Ульяновске

Россия / Ульяновская область     54°19′00″N   48°24′09″E
темп.,
°C
ветер,
м/с
пор.,
м/с
влажн.,
%
обл.,
%
осадки,
мм/ч
давл.,
гПа
погр.,
м
20 января, ср
ср2001:00−22з349364 0.0 101642
04:00−23зюз449460 0.0 101660
07:00−23зюз459369 0.0 101574
10:00−22зюз469370 0.0 101797
13:00−17з369275 0.1 1017289
16:00−15зюз369387 0.2 1017357
19:00−15зюз479293 0.1 1019267
22:00−15зюз479397 0.3 1019248
21 января, чт
чт2101:00−15зюз479285 0.1 1020189
04:00−15зюз489289 0.2 1020197
07:00−15зюз599198 0.2 1020245
10:00−14з5109098 0.2 1020308
13:00−12з5989100 0.1 1020394
16:00−11з51090100 0.1 1019384
19:00−10з5989100 0.1 1019308
22:00−11зюз5994100 0.4 1018326
22 января, пт
пт2201:00−11зюз4894100 0.9 1017325
04:00−13зюз3493100 1.3 1017100
07:00−15з3392100 0.0 101725
10:00−16з2392100 0.0 101922
13:00−13з229089 0.0 102091
16:00−15сз119090 0.0 102120
19:00−16вюв129275 0.0 102220
22:00−16юв339278 0.0 102425
23 января, сб
сб2301:00−14юв4691100 0.0 1024191
04:00−12ююв5895100 0.5 1023290
07:00−10ююв6993100 0.8 1022345
10:00−9ю5990100 1.1 1022302
13:00−4ю61191100 0.3 1020364
16:00+1ююз51096100 0.4 1019279
19:00+2юз61392100 0.1 1019364
22:00+1юз51091100 0.1 1020256
24 января, вс
вс2401:00+2ююз4893100 0.0 1020215
04:00+1ююз51093100 0.0 1020275
07:00+2ююз51096100 0.1 1020219
10:00+2юз61196100 0.4 1021258
13:00+1юз61294100 0.7 1021323
16:00+1юз71387100 0.9 1021391
19:00+1ююз71389100 0.1 1022380
22:00+1ююз71391100 0.1 1023340